This is the latest recevied weather packets stored in our database for station/object W2TAO. If no packets are shown the sender has not sent any weather packets the latest 10 day(s).
| Time | Temp. | Humidity | Pressure | Rain* | Wind** | Luminosity | Snow |
|---|---|---|---|---|---|---|---|
| 1777744014 | 12.22° C | 47% | 1013.1 hPa | 0 mm | - | 1010 W/m² | - |
| 1777743710 | 11.67° C | 46% | 1012.9 hPa | 0 mm | - | 667 W/m² | - |
| 1777743407 | 11.11° C | 44% | 1013 hPa | 0 mm | - | 268 W/m² | - |
| 1777743105 | 11.67° C | 45% | 1013.1 hPa | 0 mm | - | 293 W/m² | - |
| 1777742802 | 12.78° C | 43% | 1012.8 hPa | 0 mm | - | 483 W/m² | - |
| 1777742499 | 12.78° C | 43% | 1013.1 hPa | 0 mm | - | 937 W/m² | - |
| 1777742195 | 11.67° C | 43% | 1013.2 hPa | 0 mm | - | 895 W/m² | - |
| 1777741892 | 11.67° C | 42% | 1013.1 hPa | 0 mm | - | 924 W/m² | - |
| 1777741589 | 12.78° C | 44% | 1013.2 hPa | 0 mm | - | 986 W/m² | - |
| 1777741286 | 12.78° C | 42% | 1013.2 hPa | 0 mm | - | 899 W/m² | - |
| 1777740982 | 11.67° C | 44% | 1013.2 hPa | 0 mm | - | 899 W/m² | - |
| 1777740680 | 12.22° C | 47% | 1013.4 hPa | 0 mm | - | 948 W/m² | - |
| 1777740375 | 12.22° C | 46% | 1013.3 hPa | 0 mm | - | 919 W/m² | - |
| 1777740073 | 11.67° C | 42% | 1013.4 hPa | 0 mm | - | 865 W/m² | - |
| 1777739769 | 11.67° C | 55% | 1013.2 hPa | 0 mm | - | 843 W/m² | - |
| 1777739460 | 11.67° C | 48% | 1013.4 hPa | 0 mm | - | 882 W/m² | - |
| 1777739157 | 11.11° C | 47% | 1013.3 hPa | 0 mm | - | 758 W/m² | - |
| 1777738854 | 10.56° C | 48% | 1013.6 hPa | 0 mm | - | 833 W/m² | - |
| 1777738550 | 11.67° C | 46% | 1013.5 hPa | 0 mm | - | 761 W/m² | - |
| 1777738248 | 11.11° C | 50% | 1013.6 hPa | 0 mm | - | 885 W/m² | - |
| 1777737946 | 10.56° C | 52% | 1013.6 hPa | 0 mm | - | 719 W/m² | - |
| 1777737644 | 10.56° C | 49% | 1013.7 hPa | 0 mm | - | 821 W/m² | - |
| 1777737342 | 10.56° C | 52% | 1013.9 hPa | 0 mm | - | 777 W/m² | - |
| 1777737039 | 10.56° C | 53% | 1013.7 hPa | 0 mm | - | 461 W/m² | - |
| 1777736735 | 9.44° C | 56% | 1014 hPa | 0 mm | - | 826 W/m² | - |
* Rain latest hour (hover to see other rain measurements)
** Current wind speed in m/s (hover to see current wind gust speed)